RH
27 27 27 27 27 27 25 25 25 25 25 25 24 23 24 23 23 23 23 23 23 24 23 22 20 18 17 16 17 17 16 18 22 24 24 25 27 30 30 30 31 32 34 35 35 37 38 39 40 40 40 41 43 44 45 44 42 40 39 38 37 38 39 41 42 39 34 34 35 35 36 37 37 37 37 37 36 37 37 37 38 39 41 42 43
27 27 27 27 26 26 26 25 24 25 24 24 23 23 23 23 23 24 23 22 22 22 21 20 19 17 16 15 15 16 16 18 22 25 25 25 26 29 30 31 31 31 33 34 34 35 36 37 38 39 39 39 39 41 42 43 43 41 39 39 38 38 39 40 41 39 36 34 35 35 35 37 38 38 38 38 38 39 38 37 37 38 40 42 43
26 27 27 26 25 26 26 26 25 24 24 23 22 22 21 22 22 23 22 21 21 19 19 18 18 17 15 15 16 17 18 20 23 25 25 25 26 26 28 30 30 31 31 32 32 32 34 35 35 35 36 37 37 38 38 40 39 39 38 38 38 38 39 39 38 38 36 35 36 37 38 39 39 39 40 40 40 39 40 39 37 38 39 41 42
26 26 26 26 26 26 26 25 25 24 23 22 22 21 21 21 21 20 20 20 19 17 17 17 16 15 14 15 16 18 20 22 23 24 24 24 24 24 25 26 28 29 29 29 29 30 31 31 31 31 33 34 35 35 36 36 36 35 36 36 36 37 38 39 38 38 37 37 38 39 39 40 40 40 39 39 39 39 39 38 37 38 38 38 39
26 26 26 26 27 26 26 25 25 23 22 22 21 21 20 20 19 19 19 18 17 16 16 16 15 15 14 15 17 19 21 22 23 23 24 24 24 24 24 24 26 26 27 27 28 29 28 27 27 28 29 30 30 31 32 32 32 32 33 34 36 37 39 40 41 41 40 39 39 40 39 38 38 39 38 37 37 37 36 36 36 37 38 37 38
28 27 27 26 27 27 27 25 24 23 22 22 21 21 20 19 18 17 18 17 17 16 15 15 14 14 14 16 18 19 21 22 22 23 24 24 23 24 24 24 25 25 25 26 26 26 25 24 25 26 26 26 26 27 28 28 29 30 31 34 36 38 40 41 41 40 39 38 39 39 38 36 35 36 36 35 35 36 35 35 35 37 38 36 37
29 29 28 28 27 27 26 25 24 23 23 22 21 20 20 19 18 17 17 17 17 16 15 15 14 15 16 17 18 20 21 22 22 22 22 22 22 22 21 22 22 23 23 23 23 22 21 21 22 23 24 24 25 26 26 27 28 29 31 33 35 36 36 36 35 35 34 34 34 34 35 35 35 35 36 35 35 36 35 34 35 37 37 36 36
29 29 29 29 28 26 25 25 24 24 23 22 22 21 20 19 18 17 17 17 16 15 15 15 16 16 18 18 18 20 21 22 22 21 21 20 20 19 18 19 19 20 20 19 19 19 18 19 20 21 22 22 24 26 27 28 29 30 30 32 32 32 32 32 32 32 31 32 32 31 31 33 34 34 34 35 36 35 34 36 38 39 38 39 40
28 29 30 29 28 26 25 24 24 23 23 23 22 21 20 20 18 18 18 17 15 15 16 18 19 19 19 19 20 21 22 22 21 20 20 18 18 16 16 16 16 17 17 17 18 18 19 20 22 23 24 25 27 28 30 31 32 31 31 32 32 32 33 33 34 34 34 34 34 33 34 36 37 37 37 37 37 36 37 40 41 41 42 43 43
28 29 29 28 28 27 26 24 23 23 22 22 21 21 20 20 19 19 18 17 17 17 19 20 21 21 20 21 22 23 23 22 21 19 18 17 16 15 14 15 16 17 18 18 19 20 22 23 25 26 28 30 31 32 34 35 35 35 35 35 36 37 37 38 38 39 39 40 39 39 40 42 44 45 44 44 44 44 44 44 43 43 44 43 42
29 28 29 29 29 28 28 25 22 22 22 22 22 21 21 20 20 20 18 18 18 20 21 22 21 21 22 23 24 25 24 22 21 19 17 16 16 15 15 16 17 18 20 22 23 24 25 27 29 31 33 35 37 38 40 41 41 42 42 42 43 43 44 44 45 46 45 44 44 45 47 49 51 52 52 52 52 51 50 49 47 47 47 45 45
29 28 28 29 29 29 28 25 23 21 21 21 21 21 21 21 21 20 19 19 21 22 23 23 22 23 23 25 26 26 24 23 21 20 18 16 16 16 17 18 20 22 24 25 26 28 30 32 34 36 38 41 44 47 50 51 51 50 49 50 50 50 51 52 53 54 53 50 49 51 54 55 55 56 58 59 58 57 57 57 55 54 54 52 51
32 30 29 29 28 28 27 25 23 21 20 20 20 21 21 21 21 20 20 21 22 24 25 25 25 26 26 27 27 27 25 24 23 21 19 17 17 17 20 22 24 26 28 28 30 31 34 36 38 40 42 47 52 55 57 57 56 54 53 54 54 53 55 57 58 59 58 55 54 54 58 60 57 58 62 63 61 61 62 63 61 60 59 58 57
36 36 34 32 29 28 27 26 24 22 20 19 20 20 21 21 21 21 22 24 26 27 27 27 27 27 28 28 28 28 27 26 25 22 20 18 19 21 24 27 29 30 31 32 32 33 35 38 41 44 48 53 57 59 59 59 58 56 54 54 55 56 57 59 61 60 58 56 56 56 59 61 59 59 63 64 63 63 65 67 66 63 62 62 62
38 39 38 36 33 31 30 29 28 26 24 22 21 21 20 21 22 24 26 29 30 30 29 29 29 28 29 29 29 28 27 27 26 24 22 21 22 26 29 31 32 33 34 34 34 35 38 41 45 49 53 56 58 59 59 60 60 58 55 55 57 60 60 62 62 60 57 57 58 58 58 60 60 60 62 65 64 64 67 68 66 64 64 63 62
38 38 38 38 37 35 34 33 32 31 29 28 27 26 25 25 26 28 30 32 33 34 33 33 32 30 30 31 30 29 28 28 28 25 24 24 26 29 32 32 33 34 35 35 36 38 42 46 50 53 55 57 58 59 60 59 60 59 56 55 59 62 62 62 61 59 58 59 60 60 58 59 62 63 65 66 65 66 68 65 61 62 64 62 57
35 35 35 36 37 37 37 37 37 36 36 36 36 36 37 36 37 36 36 36 36 36 36 36 35 34 33 32 31 30 29 28 29 28 28 28 29 30 31 32 32 34 35 36 38 42 45 49 52 54 56 57 57 58 59 58 58 58 56 56 59 61 61 61 60 59 60 61 62 62 61 62 65 65 65 65 63 64 66 61 57 61 64 60 52
33 32 33 34 36 37 38 39 40 41 43 44 45 45 45 46 46 45 44 42 40 38 37 37 37 37 36 35 34 33 32 30 31 32 32 32 31 30 31 32 33 35 37 40 42 46 48 50 52 53 54 55 56 57 58 57 55 56 56 55 57 59 59 58 58 59 60 60 62 62 61 61 63 60 57 57 56 56 58 54 52 58 62 59 55
34 34 34 35 37 39 40 41 44 45 47 47 47 47 48 47 47 48 46 45 44 42 39 37 36 36 37 38 39 39 37 35 36 37 37 36 35 34 34 34 35 38 41 43 46 49 51 51 52 52 53 54 53 54 55 55 55 56 57 56 55 57 58 58 59 60 60 60 60 58 56 56 54 50 47 46 47 49 50 49 48 52 55 56 57
38 37 38 39 39 40 40 43 45 47 47 47 47 47 46 46 46 46 46 45 45 45 43 41 39 37 37 40 42 42 41 39 39 41 41 40 39 39 38 37 38 40 43 45 48 50 51 51 52 52 53 52 52 53 55 56 57 58 58 57 55 56 58 60 62 62 61 59 55 51 49 48 45 43 41 40 40 40 42 43 43 45 47 47 49
41 40 40 40 40 40 41 43 45 47 48 48 48 47 45 44 44 43 43 44 44 45 45 44 44 43 41 43 45 45 44 42 41 43 44 43 42 42 40 40 40 42 43 45 47 49 50 51 52 53 53 53 54 57 58 59 59 59 59 57 54 58 62 61 60 60 57 52 47 44 43 42 40 39 38 37 36 36 38 39 39 41 43 43 44
42 42 41 42 41 41 43 45 46 47 48 48 48 48 47 46 44 43 43 43 43 44 46 47 48 49 49 50 50 49 47 46 45 45 45 45 44 43 42 41 43 44 44 45 47 47 49 50 51 51 53 55 58 59 59 59 58 59 61 58 54 58 63 59 56 56 53 47 43 40 38 38 38 37 36 35 35 35 37 39 39 40 41 41 42
44 44 44 44 44 43 43 44 45 46 47 47 48 48 49 49 47 46 45 44 42 43 46 49 51 54 55 57 56 54 51 49 48 47 45 44 43 43 43 43 44 45 45 45 46 47 48 49 49 51 55 57 59 59 58 59 59 60 65 65 57 54 56 57 56 55 51 45 41 38 35 36 37 35 33 32 30 30 32 34 35 37 39 40 40
46 45 45 45 44 43 42 43 44 45 46 46 47 47 48 49 49 49 48 46 45 44 45 48 52 56 57 58 59 57 55 52 51 48 45 44 43 44 45 46 47 47 47 47 48 48 49 49 50 53 57 58 59 59 59 60 60 61 64 65 60 56 57 59 58 55 50 44 39 35 34 34 33 30 28 27 25 24 25 25 26 29 35 38 39
48 46 45 44 43 43 43 43 43 44 44 44 44 45 46 47 48 49 49 48 47 47 46 47 49 53 55 56 56 57 56 54 50 47 47 47 48 49 49 50 51 50 50 50 51 51 51 52 53 55 58 58 58 59 59 59 60 61 62 62 63 62 62 60 56 51 45 40 35 32 30 29 28 26 25 25 23 22 22 23 24 26 30 35 38
46 44 43 43 43 42 42 41 40 41 41 43 43 44 44 43 44 46 47 48 48 48 47 47 47 50 52 53 53 54 53 50 47 46 48 49 50 50 51 51 52 52 52 53 53 53 53 54 54 56 59 59 59 60 60 60 60 61 62 63 64 64 60 55 49 42 37 33 30 28 26 25 25 25 24 24 23 22 22 22 24 25 27 32 36
44 42 42 43 42 42 41 41 40 39 39 41 42 43 42 42 42 43 44 45 46 47 47 47 48 49 50 51 53 53 52 50 49 49 50 50 51 52 53 55 55 55 56 57 57 56 55 54 56 58 60 61 61 61 62 61 61 62 64 63 61 56 50 43 37 32 30 28 26 26 26 26 25 25 24 24 23 22 22 23 25 26 27 31 35
44 43 43 42 42 43 43 41 41 40 39 40 41 42 42 42 42 41 41 42 43 45 47 47 48 48 49 50 51 52 53 53 54 54 55 55 55 56 57 59 59 59 59 59 59 58 57 56 58 60 61 63 65 65 64 64 64 63 60 54 47 41 35 31 29 28 28 27 27 26 26 26 25 25 24 24 23 22 22 24 26 25 26 31 35
44 43 43 42 42 43 43 42 41 42 41 40 40 41 41 41 42 42 41 41 41 42 45 47 48 48 49 49 49 50 52 53 54 55 56 57 58 58 58 59 59 59 59 59 59 59 59 61 63 67 68 68 68 66 64 61 58 52 45 38 34 31 29 28 28 28 28 27 27 27 27 26 26 25 25 24 23 22 22 24 25 24 26 31 36
43 45 45 44 43 43 43 42 41 41 41 41 40 40 40 41 42 42 42 42 42 42 43 45 47 48 49 49 49 49 49 51 53 54 55 56 57 57 57 56 57 57 58 58 58 59 59 61 64 66 66 64 61 58 55 50 44 37 33 30 29 28 28 29 29 28 28 28 28 28 27 27 27 26 26 25 24 23 23 25 25 25 26 31 34
42 45 47 46 45 45 45 43 42 41 41 41 41 40 40 40 41 42 42 42 42 43 44 45 46 46 46 46 48 48 48 48 49 49 51 53 53 53 54 54 54 55 54 54 56 57 57 58 59 59 58 56 53 48 42 36 32 30 29 28 28 29 29 30 29 29 29 29 29 28 28 28 28 26 26 25 24 23 24 24 24 24 26 29 32
39 43 46 46 46 46 45 43 42 41 40 40 40 40 40 39 39 39 40 39 40 41 43 45 44 43 43 43 45 47 48 47 47 46 47 48 49 50 52 54 55 55 54 53 55 56 54 53 53 51 48 45 40 35 31 28 28 29 29 29 30 30 30 30 30 30 30 30 29 29 29 29 28 27 26 25 24 23 24 25 25 25 25 28 31
37 40 43 44 44 44 43 42 41 40 39 39 39 38 37 36 35 34 34 34 35 36 38 40 40 41 42 42 44 46 46 46 46 45 45 47 48 48 49 52 54 56 56 55 54 52 49 47 44 40 35 32 29 27 27 28 29 29 30 31 31 31 30 31 31 31 31 30 30 30 30 29 28 28 27 26 24 24 25 25 26 27 28 29 32
34 36 38 39 39 40 40 38 37 37 37 36 36 34 33 31 31 30 30 29 30 32 34 35 36 37 39 40 41 43 43 43 43 43 45 49 51 50 50 53 55 55 54 52 49 46 43 39 35 31 28 27 28 28 29 29 30 31 31 31 31 31 31 31 31 31 31 31 31 31 30 30 29 28 27 25 25 26 27 27 28 29 30 32 34
33 33 34 34 34 34 33 33 32 32 31 32 32 31 30 30 30 29 29 28 28 29 31 33 35 36 37 38 38 39 39 40 41 42 44 47 50 50 50 51 50 47 45 44 43 41 37 32 29 28 28 29 30 30 31 32 32 32 32 32 32 32 32 32 32 32 32 32 32 32 31 31 30 30 28 27 27 28 29 29 30 31 32 34 35
31 32 33 32 32 32 32 32 32 32 31 32 32 32 32 32 31 31 32 31 30 31 33 34 36 36 37 38 39 40 40 40 41 44 49 53 55 53 51 49 44 40 39 40 40 37 34 30 29 30 30 31 32 32 32 33 33 33 33 33 33 33 32 32 32 32 33 33 33 33 32 32 31 30 30 29 30 31 32 32 32 33 33 34 34
31 32 33 32 31 31 32 33 34 34 34 34 35 34 34 34 34 34 35 35 35 37 39 41 43 43 44 44 44 45 46 45 45 49 54 57 57 54 52 50 46 40 37 37 36 34 31 31 31 32 32 33 34 34 34 35 35 35 35 34 34 33 33 32 32 33 34 34 34 34 33 33 33 32 32 33 34 34 34 34 34 34 34 34 34
33 33 33 33 32 31 32 33 36 37 37 37 37 36 36 36 36 35 36 38 41 45 47 49 51 52 51 49 47 46 48 48 48 48 52 54 54 52 50 47 42 37 35 35 34 33 33 34 34 35 36 36 36 37 38 38 38 37 36 36 35 34 34 33 33 33 36 36 36 35 35 35 34 35 35 36 37 36 36 37 36 36 36 36 36
35 34 34 34 32 31 31 32 34 35 37 38 39 38 38 39 39 40 42 45 49 53 54 53 55 56 54 52 52 54 57 58 56 51 49 50 51 50 48 44 40 37 37 37 37 38 38 39 39 39 40 40 40 40 41 40 40 40 39 38 37 36 35 35 34 35 37 39 38 37 37 36 37 38 39 39 39 37 37 38 38 38 38 39 39
39 38 37 35 34 33 32 32 32 33 34 37 39 39 41 43 45 49 53 56 59 61 59 57 58 60 58 58 62 64 64 63 59 53 51 51 52 52 51 47 43 41 41 42 42 42 42 43 43 42 43 43 43 43 43 43 43 42 40 40 39 38 37 37 37 36 38 40 40 40 39 39 39 41 41 41 40 39 39 40 40 39 39 40 40
42 41 40 38 37 36 34 34 33 33 34 35 37 40 44 46 48 53 59 62 64 65 62 59 61 65 65 67 71 70 66 62 59 56 55 54 54 54 52 49 45 44 44 44 45 45 45 45 45 44 45 45 45 45 46 45 45 45 43 42 41 40 40 40 40 39 39 41 43 43 42 42 43 44 44 42 41 40 40 41 41 40 40 41 41
44 43 42 40 40 39 38 38 38 38 37 37 38 40 44 45 47 52 58 60 61 62 60 59 62 66 67 68 70 70 67 64 62 60 56 54 52 52 51 48 47 47 47 47 48 48 47 47 46 46 46 45 45 46 46 47 47 47 46 45 43 43 43 44 44 43 42 43 45 47 47 47 47 47 46 44 42 41 41 41 41 40 41 41 42
46 45 43 42 42 41 40 41 42 42 42 42 42 42 43 42 44 49 54 57 59 60 60 60 62 64 64 65 66 66 63 61 58 55 53 51 51 51 51 50 51 51 51 51 51 50 50 49 48 47 47 46 46 47 47 47 48 49 48 47 46 46 46 47 47 48 48 48 49 50 50 50 50 49 48 45 43 42 42 41 41 42 42 42 42
46 46 45 45 45 43 43 44 45 45 45 45 45 44 43 42 43 46 50 54 58 60 61 62 64 64 65 65 64 63 61 57 55 53 53 52 53 53 53 54 54 53 53 53 53 52 51 49 49 48 48 48 48 49 49 49 50 50 50 49 49 50 51 52 53 54 54 53 52 52 52 52 52 51 49 46 44 44 43 43 43 45 46 46 46
48 48 47 47 47 47 47 47 47 47 46 46 45 45 44 44 45 46 48 51 56 60 61 61 62 61 61 60 59 58 57 55 54 55 55 55 55 56 55 55 54 53 54 54 53 52 51 50 49 49 49 49 50 50 50 51 51 52 52 52 52 53 55 57 58 59 59 59 57 56 55 54 53 51 49 47 46 46 46 47 48 49 50 50 51
51 51 50 50 49 50 51 51 51 49 49 49 48 47 47 47 48 49 50 51 54 56 57 57 56 56 56 57 57 57 57 57 58 58 58 58 58 58 57 56 56 56 55 55 54 52 51 50 50 50 50 50 51 51 52 52 52 52 53 54 55 57 58 60 62 64 65 64 62 59 57 56 54 52 51 49 49 49 49 51 53 54 54 55 56
54 54 53 53 52 52 53 54 54 53 54 54 53 51 51 50 51 52 54 55 55 56 56 56 57 57 58 58 59 59 59 59 60 61 61 60 60 59 58 57 58 57 57 56 55 54 53 51 51 51 51 51 52 53 53 54 54 55 56 57 58 60 62 65 67 68 68 67 66 63 60 58 57 56 55 54 53 54 54 55 58 60 60 60 61
58 56 56 56 57 57 57 57 58 59 59 59 57 55 54 54 54 55 56 58 59 60 61 61 61 61 61 61 62 62 61 61 62 63 62 61 61 60 59 59 58 57 57 57 56 55 54 53 52 52 52 52 53 54 55 56 56 58 59 61 63 64 66 67 68 69 69 69 68 66 64 62 62 63 62 61 59 59 61 62 64 67 68 70 71
61 61 60 60 61 62 62 62 62 63 62 61 60 59 58 58 58 57 58 60 62 64 65 66 66 65 64 64 63 63 63 63 62 61 61 60 59 59 59 58 58 57 57 56 56 55 54 54 54 54 55 55 56 56 57 57 59 60 62 64 66 67 68 68 68 69 68 68 69 69 69 70 71 71 70 68 66 66 68 70 71 74 76 78 80
68 68 67 66 66 66 66 66 65 65 64 63 61 61 61 60 60 60 61 62 65 66 68 69 69 68 67 66 64 63 62 61 60 60 59 59 59 59 58 58 58 58 58 58 57 57 57 57 57 57 58 58 59 59 59 60 62 64 66 67 67 67 66 66 66 66 66 65 68 71 75 79 82 81 79 79 78 76 76 76 76 78 80 82 83
72 72 72 71 69 68 67 67 66 64 64 62 60 60 60 59 59 61 62 63 64 66 67 67 67 67 66 64 63 62 61 60 59 59 58 57 57 58 58 59 60 60 61 60 60 59 59 59 58 57 58 59 60 60 60 61 62 63 65 66 65 65 64 63 64 65 66 67 71 76 80 83 86 87 87 88 87 87 85 83 80 80 83 87 89